DW8626 Madrid ES current weather conditions

sailwx.info

Wind from 026

Air temperature 10.0° C
Dewpoint 5.8° C

Last reported at 2016-Dec-08 22:44 UTC.
Time now 2016-Dec-09 00:01 UTC

Location: N 40°29' W 003°43'.
View on Google Maps.

See reports from other nearby stations

  
Tides and Currents Weather Stations Pressure Air Temp Water Temp Dewpoint Dewpoint Depression Visibility Wind Speed Wind Dir Waves Ship Positions
date/time (UTC)wind fromknots sea level pressurealtimeterstation pressurevisibilityair tempwater tempwave heightnotes
2016-Dec-08 22:44 026 10.0
2016-Dec-08 22:29 082 10.0
2016-Dec-08 22:14 094 10.0
2016-Dec-08 21:59 065 10.0
2016-Dec-08 21:44 065 10.6
2016-Dec-08 21:29 065 10.6
2016-Dec-08 21:14 040 10.6
2016-Dec-08 20:59 039 10.6
2016-Dec-08 20:44 039 10.6
2016-Dec-08 20:29 039 10.6
2016-Dec-08 20:14 039 10.0
2016-Dec-08 19:59 040 10.6
2016-Dec-08 05:44 006 6.1
2016-Dec-08 05:29 129 6.7
2016-Dec-08 05:14 129 7.8
2016-Dec-08 04:59 148 7.8
2016-Dec-08 04:44 120 7.8
2016-Dec-08 04:29 101 7.8
2016-Dec-08 04:14 103 7.8
2016-Dec-08 03:59 100 8.3
2016-Dec-08 03:44 098 7.8
2016-Dec-08 03:29 098 7.8
2016-Dec-08 03:14 092 7.8
2016-Dec-08 02:59 056 7.8
2016-Dec-08 02:44 091 7.8
2016-Dec-08 02:29 087 7.8
2016-Dec-08 02:14 110 8.3
2016-Dec-08 01:59 131 7.8
2016-Dec-08 01:44 131 0 gusting 2 7.8
2016-Dec-08 01:30 049 5 gusting 6 7.8
2016-Dec-08 01:15 033 4 gusting 4 7.2
2016-Dec-08 01:00 039 1 gusting 2 7.8
2016-Dec-08 00:45 018 7.2
2016-Dec-08 00:29 019 7.8
2016-Dec-08 00:14 347 7.8
2016-Dec-07 23:59 008 7.8
2016-Dec-07 23:44 087 7.8
2016-Dec-07 23:29 088 9.4
2016-Dec-07 23:14 088 8.9
2016-Dec-07 22:59 077 9.4
2016-Dec-07 22:44 086 10.0
2016-Dec-07 22:29 105 10.6
2016-Dec-07 22:14 071 10.0
2016-Dec-07 21:59 344 10.0
2016-Dec-07 21:44 344 10.0
2016-Dec-07 21:29 345 9.4
2016-Dec-07 21:14 345 9.4
2016-Dec-07 20:59 345 10.0
2016-Dec-07 20:44 357 10.0
2016-Dec-07 20:29 021 10.0
2016-Dec-07 20:15 021 10.0
2016-Dec-07 19:59 003 10.0
2016-Dec-07 19:45 001 10.0
2016-Dec-07 19:29 360 10.0
2016-Dec-07 19:15 358 10.0
2016-Dec-07 19:00 348 10.0
2016-Dec-07 18:45 290 10.6
2016-Dec-07 18:29 291 11.1
2016-Dec-07 18:14 197 11.1
2016-Dec-07 17:59 197 11.1
2016-Dec-07 17:44 176 11.7
2016-Dec-07 17:29 210 11.7
2016-Dec-07 17:14 143 11.7
2016-Dec-07 16:59 158 0 gusting 2 12.2
2016-Dec-07 16:44 119 1 gusting 3 12.2
2016-Dec-07 16:29 160 0 gusting 2 12.8
2016-Dec-07 16:14 211 13.3
2016-Dec-07 15:59 256 13.9
2016-Dec-07 15:44 221 13.9
2016-Dec-07 15:29 233 14.4
2016-Dec-07 15:14 208 13.9
2016-Dec-07 14:59 121 13.9
2016-Dec-07 14:44 200 13.9
2016-Dec-07 14:29 160 13.9
2016-Dec-07 14:15 239 13.3
2016-Dec-07 13:59 225 13.9
2016-Dec-07 13:45 293 13.9
2016-Dec-07 13:30 326 12.2
2016-Dec-07 13:15 338 12.2
2016-Dec-07 13:00 325 12.2
2016-Dec-07 12:45 016 12.2
2016-Dec-07 12:29 354 12.2
2016-Dec-07 12:14 004 11.1
2016-Dec-07 11:59 036 11.1
2016-Dec-07 11:44 014 2 gusting 5 11.1
2016-Dec-07 11:29 058 12.2
2016-Dec-07 11:14 104 12.2
2016-Dec-07 10:59 158 12.2
2016-Dec-07 10:44 228 12.2
2016-Dec-07 10:29 273 11.1
2016-Dec-07 10:14 155 11.1
2016-Dec-07 09:59 006 10.0
2016-Dec-07 09:44 006 8.9
2016-Dec-07 09:29 006 7.8
2016-Dec-07 09:14 293 7.8
2016-Dec-07 08:59 243 7.8
2016-Dec-07 08:44 105 7.8
2016-Dec-07 08:30 099 7.2
2016-Dec-07 08:14 032 7.2
2016-Dec-07 08:00 080 6.7
2016-Dec-07 07:45 121 6.7
2016-Dec-07 07:30 129 6.7
2016-Dec-07 07:15 068 6.1
2016-Dec-07 07:00 020 6.1
2016-Dec-07 06:44 114 6.1
2016-Dec-07 06:14 114 7.2
2016-Dec-07 05:59 086 6.7
2016-Dec-07 05:44 090 6.7
2016-Dec-07 05:29 006 6.7
2016-Dec-07 05:14 006 6.7
2016-Dec-07 04:59 046 7.2
2016-Dec-07 04:44 058 7.2
2016-Dec-07 04:29 047 7.2
2016-Dec-07 04:14 080 7.2
2016-Dec-07 03:59 086 7.2
2016-Dec-07 03:44 099 7.8
2016-Dec-07 03:29 084 7.2
2016-Dec-07 03:14 044 7.2
2016-Dec-07 02:44 019 7.2
2016-Dec-07 02:29 013 7.2
2016-Dec-07 02:14 035 7.8
2016-Dec-07 02:00 036 8.3
2016-Dec-07 01:44 077 8.3
2016-Dec-07 01:30 056 8.3
2016-Dec-07 01:15 085 8.3
2016-Dec-07 01:00 029 8.9
2016-Dec-07 00:45 065 9.4
2016-Dec-07 00:44 095 0 gusting 3 9.4
2016-Dec-07 00:29 083 9.4
2016-Dec-07 00:14 036 9.4